Station Historical Data
Daily Summary for November 12, 2017 Units:  English    Metric   Both
« Previous Day
Next Day »
Daily Weekly Monthly Yearly Custom
  High: Low: Average:
Temperature: 42.4 °F 27.7 °F 35.6 °F
Dew Point: 31.2 °F 16.7 °F 23.5 °F
Humidity: 81% 53% 61%
Wind Speed: 4.0mph 0.0mph 0.5mph
Wind Gust: 7.0mph - -
Wind- - SE
Pressure: 30.41 in 30.35 in -
Precipitation: 0.00 in    
Historical Graphs
 
 
Tabular Data for November 12, 2017
Time Temperature Dew Point Pressure Wind Wind Speed Wind Gust Humidity Rainfall Rate (Hourly)
00:04 28.5 °F 17.9 °F 30.39 in Calm     64% 0.00 in
00:09 28.6 °F 17.6 °F 30.39 in Calm     63% 0.00 in
00:14 28.5 °F 17.5 °F 30.39 in Calm     63% 0.00 in
00:19 28.4 °F 17.0 °F 30.39 in Calm     62% 0.00 in
00:24 28.4 °F 16.7 °F 30.39 in Calm   5.0 mph 61% 0.00 in
00:29 28.5 °F 16.7 °F 30.38 in Calm   3.0 mph 61% 0.00 in
00:34 28.5 °F 16.7 °F 30.38 in Calm   1.0 mph 61% 0.00 in
00:39 28.1 °F 16.7 °F 30.38 in Calm   1.0 mph 62% 0.00 in
00:44 27.7 °F 16.7 °F 30.38 in Calm   1.0 mph 63% 0.00 in
00:49 27.7 °F 17.1 °F 30.38 in Calm   1.0 mph 64% 0.00 in
00:54 27.8 °F 17.2 °F 30.38 in Calm     64% 0.00 in
00:59 28.1 °F 17.5 °F 30.38 in Calm     64% 0.00 in
01:05 28.2 °F 17.6 °F 30.38 in Calm     64% 0.00 in
01:10 28.4 °F 17.8 °F 30.38 in Calm     64% 0.00 in
01:15 28.5 °F 18.2 °F 30.38 in Calm   1.0 mph 65% 0.00 in
01:20 28.5 °F 18.2 °F 30.38 in Calm   2.0 mph 65% 0.00 in
01:25 28.6 °F 18.3 °F 30.38 in Calm   1.0 mph 65% 0.00 in
01:30 28.8 °F 18.1 °F 30.38 in Calm   2.0 mph 64% 0.00 in
01:35 29.1 °F 18.1 °F 30.38 in Calm   2.0 mph 63% 0.00 in
01:40 29.5 °F 17.7 °F 30.38 in Calm   2.0 mph 61% 0.00 in
01:45 29.8 °F 17.6 °F 30.38 in Calm   3.0 mph 60% 0.00 in
01:50 29.9 °F 17.7 °F 30.38 in SSW 1.0 mph 3.0 mph 60% 0.00 in
01:55 29.9 °F 18.1 °F 30.38 in Calm   1.0 mph 61% 0.00 in
02:00 29.8 °F 18.4 °F 30.38 in Calm   2.0 mph 62% 0.00 in
02:05 29.8 °F 18.4 °F 30.38 in Calm   3.0 mph 62% 0.00 in
02:10 29.7 °F 18.3 °F 30.38 in Calm     62% 0.00 in
02:15 29.7 °F 18.3 °F 30.38 in South 2.0 mph 3.0 mph 62% 0.00 in
02:20 29.7 °F 18.3 °F 30.38 in Calm   2.0 mph 62% 0.00 in
02:25 29.8 °F 18.4 °F 30.39 in Calm   2.0 mph 62% 0.00 in
02:30 29.8 °F 18.4 °F 30.38 in Calm     62% 0.00 in
02:35 29.7 °F 18.3 °F 30.38 in Calm     62% 0.00 in
02:40 29.7 °F 18.3 °F 30.38 in Calm     62% 0.00 in
02:45 29.7 °F 18.3 °F 30.38 in Calm     62% 0.00 in
02:50 29.7 °F 18.6 °F 30.39 in Calm     63% 0.00 in
02:55 29.8 °F 18.7 °F 30.38 in Calm     63% 0.00 in
03:00 29.7 °F 18.6 °F 30.38 in Calm     63% 0.00 in
03:05 29.7 °F 18.6 °F 30.38 in Calm     63% 0.00 in
03:15 29.7 °F 18.6 °F 30.38 in Calm     63% 0.00 in
03:20 29.8 °F 18.4 °F 30.38 in Calm     62% 0.00 in
03:25 29.7 °F 18.3 °F 30.38 in Calm     62% 0.00 in
03:30 29.7 °F 18.3 °F 30.38 in Calm     62% 0.00 in
03:35 29.8 °F 18.0 °F 30.38 in Calm     61% 0.00 in
03:40 29.8 °F 18.0 °F 30.38 in Calm     61% 0.00 in
03:45 30.0 °F 18.2 °F 30.38 in Calm     61% 0.00 in
03:50 30.0 °F 17.8 °F 30.38 in Calm     60% 0.00 in
03:55 30.0 °F 17.8 °F 30.38 in Calm     60% 0.00 in
04:00 29.9 °F 17.7 °F 30.38 in Calm     60% 0.00 in
04:05 29.9 °F 17.7 °F 30.39 in Calm     60% 0.00 in
04:10 29.7 °F 17.5 °F 30.38 in Calm     60% 0.00 in
04:14 29.5 °F 17.7 °F 30.38 in Calm     61% 0.00 in
04:19 29.3 °F 17.5 °F 30.39 in Calm     61% 0.00 in
04:25 29.0 °F 17.6 °F 30.39 in Calm     62% 0.00 in
04:30 28.8 °F 17.4 °F 30.39 in Calm     62% 0.00 in
04:35 28.7 °F 17.7 °F 30.39 in Calm     63% 0.00 in
04:40 28.5 °F 17.9 °F 30.39 in Calm     64% 0.00 in
04:45 28.3 °F 18.0 °F 30.39 in Calm     65% 0.00 in
04:50 28.3 °F 18.0 °F 30.39 in Calm     65% 0.00 in
04:55 28.5 °F 18.2 °F 30.39 in Calm     65% 0.00 in
05:00 28.8 °F 18.1 °F 30.39 in Calm     64% 0.00 in
05:05 29.0 °F 18.7 °F 30.39 in Calm     65% 0.00 in
05:10 29.2 °F 18.5 °F 30.39 in Calm     64% 0.00 in
05:15 29.4 °F 18.7 °F 30.39 in Calm     64% 0.00 in
05:19 29.6 °F 18.5 °F 30.39 in Calm     63% 0.00 in
05:24 29.7 °F 18.6 °F 30.39 in Calm     63% 0.00 in
05:30 29.9 °F 18.8 °F 30.39 in Calm     63% 0.00 in
05:35 30.0 °F 18.9 °F 30.39 in Calm     63% 0.00 in
05:40 30.1 °F 18.6 °F 30.39 in Calm     62% 0.00 in
05:45 30.3 °F 18.8 °F 30.40 in Calm     62% 0.00 in
05:50 30.5 °F 18.6 °F 30.40 in Calm     61% 0.00 in
05:55 30.7 °F 18.4 °F 30.40 in Calm     60% 0.00 in
06:00 30.8 °F 18.5 °F 30.40 in Calm     60% 0.00 in
06:05 31.0 °F 18.3 °F 30.40 in Calm     59% 0.00 in
06:10 31.0 °F 18.3 °F 30.40 in Calm     59% 0.00 in
06:15 31.1 °F 18.4 °F 30.40 in Calm     59% 0.00 in
06:19 31.0 °F 18.3 °F 30.40 in Calm     59% 0.00 in
06:24 31.1 °F 18.4 °F 30.40 in Calm     59% 0.00 in
06:29 31.1 °F 18.0 °F 30.40 in Calm     58% 0.00 in
06:34 31.1 °F 18.0 °F 30.40 in Calm   3.0 mph 58% 0.00 in
06:40 31.2 °F 18.1 °F 30.40 in SSE 2.0 mph 4.0 mph 58% 0.00 in
06:45 31.2 °F 18.1 °F 30.40 in SSE 2.0 mph 4.0 mph 58% 0.00 in
06:49 31.3 °F 18.2 °F 30.40 in SSE 1.0 mph 4.0 mph 58% 0.00 in
06:55 31.4 °F 18.3 °F 30.40 in SSE 1.0 mph 3.0 mph 58% 0.00 in
07:00 31.5 °F 18.8 °F 30.40 in Calm   3.0 mph 59% 0.00 in
07:05 31.6 °F 18.9 °F 30.40 in Calm   3.0 mph 59% 0.00 in
07:10 31.6 °F 18.9 °F 30.40 in SSE 2.0 mph 2.0 mph 59% 0.00 in
07:15 31.7 °F 18.6 °F 30.40 in SSE 1.0 mph 3.0 mph 58% 0.00 in
07:20 31.7 °F 18.6 °F 30.40 in SSE 1.0 mph 3.0 mph 58% 0.00 in
07:24 31.7 °F 18.6 °F 30.40 in SSE 1.0 mph 3.0 mph 58% 0.00 in
07:30 31.9 °F 18.8 °F 30.40 in SSE 1.0 mph 3.0 mph 58% 0.00 in
07:34 32.0 °F 18.9 °F 30.40 in Calm     58% 0.00 in
07:39 32.1 °F 19.0 °F 30.40 in Calm     58% 0.00 in
07:44 32.2 °F 19.1 °F 30.40 in Calm     58% 0.00 in
07:49 32.3 °F 18.8 °F 30.40 in SSE 1.0 mph 4.0 mph 57% 0.00 in
07:54 32.3 °F 19.2 °F 30.40 in SSE 1.0 mph 2.0 mph 58% 0.00 in
08:00 32.4 °F 19.3 °F 30.40 in Calm   3.0 mph 58% 0.00 in
08:04 32.5 °F 19.3 °F 30.40 in SSE 1.0 mph 3.0 mph 58% 0.00 in
08:09 32.5 °F 19.3 °F 30.40 in South 3.0 mph 4.0 mph 58% 0.00 in
08:15 32.6 °F 19.4 °F 30.40 in Calm   4.0 mph 58% 0.00 in
08:20 32.7 °F 19.1 °F 30.41 in SSE 1.0 mph 4.0 mph 57% 0.00 in
08:24 32.8 °F 19.6 °F 30.41 in SSE 1.0 mph 4.0 mph 58% 0.00 in
08:29 32.9 °F 19.7 °F 30.41 in Calm   3.0 mph 58% 0.00 in
08:35 33.0 °F 19.8 °F 30.41 in Calm   4.0 mph 58% 0.00 in
08:40 33.2 °F 20.0 °F 30.41 in SSE 1.0 mph 4.0 mph 58% 0.00 in
08:44 33.3 °F 19.7 °F 30.41 in South 2.0 mph 5.0 mph 57% 0.00 in
08:49 33.3 °F 19.7 °F 30.41 in South 3.0 mph 5.0 mph 57% 0.00 in
08:54 33.5 °F 19.9 °F 30.40 in South 1.0 mph 5.0 mph 57% 0.00 in
08:59 33.6 °F 19.6 °F 30.40 in SSE 1.0 mph 4.0 mph 56% 0.00 in
09:05 33.7 °F 19.7 °F 30.40 in SSE 1.0 mph 4.0 mph 56% 0.00 in
09:09 33.8 °F 19.7 °F 30.40 in SSE 2.0 mph 3.0 mph 56% 0.00 in
09:14 33.9 °F 20.3 °F 30.40 in Calm   4.0 mph 57% 0.00 in
09:20 34.1 °F 20.4 °F 30.40 in Calm   3.0 mph 57% 0.00 in
09:25 34.2 °F 20.5 °F 30.40 in SSE 2.0 mph 3.0 mph 57% 0.00 in
09:29 34.3 °F 20.6 °F 30.40 in SSE 1.0 mph 3.0 mph 57% 0.00 in
09:34 34.4 °F 20.7 °F 30.40 in SSE 1.0 mph 4.0 mph 57% 0.00 in
09:40 34.6 °F 20.9 °F 30.40 in SSE 1.0 mph 4.0 mph 57% 0.00 in
09:44 34.8 °F 20.7 °F 30.40 in SSE 3.0 mph 4.0 mph 56% 0.00 in
09:50 35.1 °F 21.0 °F 30.40 in ESE 2.0 mph 4.0 mph 56% 0.00 in
09:54 35.3 °F 20.7 °F 30.40 in SSW 3.0 mph 5.0 mph 55% 0.00 in
09:59 35.5 °F 21.3 °F 30.40 in South 2.0 mph 5.0 mph 56% 0.00 in
10:04 35.9 °F 21.7 °F 30.40 in SSW 2.0 mph 5.0 mph 56% 0.00 in
10:09 36.1 °F 21.5 °F 30.40 in South 1.0 mph 4.0 mph 55% 0.00 in
10:14 36.2 °F 21.6 °F 30.40 in SSE 1.0 mph 4.0 mph 55% 0.00 in
10:20 36.2 °F 21.6 °F 30.40 in SSE 2.0 mph 5.0 mph 55% 0.00 in
10:25 36.2 °F 21.6 °F 30.40 in SSE 1.0 mph 4.0 mph 55% 0.00 in
10:29 36.4 °F 21.8 °F 30.40 in SSE 1.0 mph 4.0 mph 55% 0.00 in
10:34 36.6 °F 21.9 °F 30.40 in SSE 1.0 mph 3.0 mph 55% 0.00 in
10:39 36.7 °F 22.0 °F 30.40 in SSE 1.0 mph 3.0 mph 55% 0.00 in
10:45 36.7 °F 22.0 °F 30.40 in SSE 1.0 mph 3.0 mph 55% 0.00 in
10:50 37.0 °F 22.7 °F 30.40 in SSE 1.0 mph 3.0 mph 56% 0.00 in
10:54 37.5 °F 23.2 °F 30.40 in Calm   3.0 mph 56% 0.00 in
10:59 37.9 °F 22.7 °F 30.40 in South 1.0 mph 3.0 mph 54% 0.00 in
11:04 38.3 °F 23.1 °F 30.40 in South 3.0 mph 3.0 mph 54% 0.00 in
11:09 38.6 °F 23.4 °F 30.40 in Calm   5.0 mph 54% 0.00 in
11:14 38.8 °F 23.6 °F 30.40 in Calm     54% 0.00 in
11:19 38.8 °F 23.6 °F 30.40 in Calm     54% 0.00 in
11:25 38.7 °F 23.5 °F 30.39 in Calm   3.0 mph 54% 0.00 in
11:30 38.6 °F 23.4 °F 30.39 in South 1.0 mph 3.0 mph 54% 0.00 in
11:34 38.7 °F 24.8 °F 30.39 in Calm   3.0 mph 57% 0.00 in
11:39 38.8 °F 23.6 °F 30.39 in South 1.0 mph 2.0 mph 54% 0.00 in
11:44 38.9 °F 23.7 °F 30.39 in South 1.0 mph 3.0 mph 54% 0.00 in
11:49 39.1 °F 24.3 °F 30.39 in SW 3.0 mph 4.0 mph 55% 0.00 in
11:54 39.1 °F 23.8 °F 30.39 in SW 1.0 mph 3.0 mph 54% 0.00 in
11:59 39.0 °F 23.7 °F 30.39 in SW 1.0 mph 3.0 mph 54% 0.00 in
12:04 39.2 °F 24.4 °F 30.39 in Calm   3.0 mph 55% 0.00 in
12:09 39.2 °F 24.4 °F 30.39 in SW 1.0 mph 3.0 mph 55% 0.00 in
12:14 39.2 °F 24.4 °F 30.39 in Calm   2.0 mph 55% 0.00 in
12:20 39.3 °F 23.6 °F 30.39 in Calm   2.0 mph 53% 0.00 in
12:25 39.3 °F 24.0 °F 30.38 in Calm   1.0 mph 54% 0.00 in
12:29 39.6 °F 24.7 °F 30.38 in Calm     55% 0.00 in
12:35 39.6 °F 24.3 °F 30.38 in Calm     54% 0.00 in
12:39 39.5 °F 24.2 °F 30.38 in Calm     54% 0.00 in
12:44 39.6 °F 24.7 °F 30.38 in Calm   2.0 mph 55% 0.00 in
12:49 39.8 °F 25.4 °F 30.38 in Calm   2.0 mph 56% 0.00 in
12:54 39.9 °F 25.0 °F 30.38 in Calm     55% 0.00 in
12:59 40.3 °F 25.4 °F 30.38 in Calm     55% 0.00 in
13:04 40.4 °F 25.9 °F 30.38 in Calm   3.0 mph 56% 0.00 in
13:09 40.7 °F 25.3 °F 30.38 in Calm   3.0 mph 54% 0.00 in
13:14 40.8 °F 25.9 °F 30.38 in Calm   2.0 mph 55% 0.00 in
13:19 40.8 °F 25.9 °F 30.37 in Calm   2.0 mph 55% 0.00 in
13:24 40.7 °F 26.2 °F 30.37 in Calm   3.0 mph 56% 0.00 in
13:30 40.7 °F 25.8 °F 30.37 in Calm   3.0 mph 55% 0.00 in
13:35 40.9 °F 26.0 °F 30.36 in South 2.0 mph 3.0 mph 55% 0.00 in
13:39 40.9 °F 26.4 °F 30.37 in SSE 1.0 mph 3.0 mph 56% 0.00 in
13:40 40.9 °F 26.4 °F 30.37 in Calm   3.0 mph 56% 0.00 in
13:44 41.1 °F 25.7 °F 30.36 in SE 1.0 mph 3.0 mph 54% 0.00 in
13:49 41.4 °F 26.9 °F 30.36 in Calm   2.0 mph 56% 0.00 in
13:54 41.5 °F 26.5 °F 30.36 in ESE 1.0 mph 3.0 mph 55% 0.00 in
13:59 41.3 °F 25.9 °F 30.36 in ESE 2.0 mph 2.0 mph 54% 0.00 in
14:04 41.4 °F 25.5 °F 30.36 in ESE 1.0 mph 4.0 mph 53% 0.00 in
14:09 41.7 °F 27.1 °F 30.36 in Calm   3.0 mph 56% 0.00 in
14:14 41.9 °F 26.9 °F 30.36 in Calm   3.0 mph 55% 0.00 in
14:19 41.9 °F 27.3 °F 30.36 in ENE 2.0 mph 4.0 mph 56% 0.00 in
14:24 42.1 °F 27.1 °F 30.35 in East 1.0 mph 5.0 mph 55% 0.00 in
14:29 42.0 °F 27.4 °F 30.35 in SE 1.0 mph 3.0 mph 56% 0.00 in
14:34 42.1 °F 27.9 °F 30.35 in East 2.0 mph 3.0 mph 57% 0.00 in
14:39 42.1 °F 27.5 °F 30.35 in East 1.0 mph 4.0 mph 56% 0.00 in
14:44 42.2 °F 27.6 °F 30.35 in ESE 1.0 mph 4.0 mph 56% 0.00 in
14:49 42.2 °F 27.6 °F 30.35 in SE 1.0 mph 3.0 mph 56% 0.00 in
14:55 42.2 °F 27.6 °F 30.35 in SE 1.0 mph 3.0 mph 56% 0.00 in
15:00 42.2 °F 27.2 °F 30.35 in SE 1.0 mph 5.0 mph 55% 0.00 in
15:04 42.2 °F 27.2 °F 30.35 in ESE 2.0 mph 5.0 mph 55% 0.00 in
15:09 42.1 °F 27.5 °F 30.35 in Calm   3.0 mph 56% 0.00 in
15:14 42.3 °F 27.7 °F 30.35 in Calm   2.0 mph 56% 0.00 in
15:19 42.4 °F 27.4 °F 30.35 in ESE 2.0 mph 5.0 mph 55% 0.00 in
15:24 42.2 °F 27.2 °F 30.35 in SE 1.0 mph 4.0 mph 55% 0.00 in
15:29 42.1 °F 27.5 °F 30.35 in SSE 2.0 mph 7.0 mph 56% 0.00 in
15:34 41.9 °F 27.3 °F 30.35 in SE 2.0 mph 7.0 mph 56% 0.00 in
15:39 41.8 °F 27.2 °F 30.35 in ESE 1.0 mph 4.0 mph 56% 0.00 in
15:44 41.8 °F 26.8 °F 30.35 in ESE 1.0 mph 5.0 mph 55% 0.00 in
15:49 41.5 °F 27.0 °F 30.35 in ESE 1.0 mph 5.0 mph 56% 0.00 in
15:55 41.5 °F 27.0 °F 30.35 in Calm   3.0 mph 56% 0.00 in
15:59 41.5 °F 27.0 °F 30.35 in ESE 2.0 mph 3.0 mph 56% 0.00 in
16:04 41.4 °F 26.4 °F 30.35 in ESE 1.0 mph 5.0 mph 55% 0.00 in
16:09 41.5 °F 26.5 °F 30.35 in NE 4.0 mph 6.0 mph 55% 0.00 in
16:14 41.4 °F 26.4 °F 30.35 in East 2.0 mph 5.0 mph 55% 0.00 in
16:19 41.3 °F 25.9 °F 30.35 in East 1.0 mph 5.0 mph 54% 0.00 in
16:24 41.2 °F 25.8 °F 30.35 in Calm   4.0 mph 54% 0.00 in
16:29 41.2 °F 25.8 °F 30.35 in ENE 1.0 mph 6.0 mph 54% 0.00 in
16:34 41.2 °F 26.2 °F 30.35 in East 1.0 mph 6.0 mph 55% 0.00 in
16:44 41.0 °F 26.1 °F 30.35 in ENE 1.0 mph 4.0 mph 55% 0.00 in
16:49 41.0 °F 26.1 °F 30.35 in ENE 2.0 mph 6.0 mph 55% 0.00 in
16:54 41.0 °F 26.1 °F 30.35 in East 1.0 mph 6.0 mph 55% 0.00 in
16:59 40.9 °F 26.4 °F 30.35 in East 2.0 mph 3.0 mph 56% 0.00 in
17:04 40.9 °F 26.8 °F 30.36 in East 1.0 mph 5.0 mph 57% 0.00 in
17:09 40.8 °F 26.7 °F 30.36 in ENE 1.0 mph 5.0 mph 57% 0.00 in
17:14 40.8 °F 26.7 °F 30.36 in ENE 2.0 mph 4.0 mph 57% 0.00 in
17:19 40.7 °F 27.1 °F 30.36 in Calm   5.0 mph 58% 0.00 in
17:24 40.7 °F 27.1 °F 30.36 in ENE 2.0 mph 6.0 mph 58% 0.00 in
17:29 40.6 °F 27.0 °F 30.36 in East 3.0 mph 3.0 mph 58% 0.00 in
17:34 40.6 °F 27.4 °F 30.36 in ENE 1.0 mph 7.0 mph 59% 0.00 in
17:39 40.6 °F 27.4 °F 30.36 in ENE 2.0 mph 7.0 mph 59% 0.00 in
17:44 40.6 °F 27.4 °F 30.36 in East 3.0 mph 5.0 mph 59% 0.00 in
17:49 40.5 °F 27.3 °F 30.36 in East 2.0 mph 3.0 mph 59% 0.00 in
17:54 40.4 °F 26.8 °F 30.36 in ENE 2.0 mph 5.0 mph 58% 0.00 in
18:00 40.4 °F 27.2 °F 30.36 in ENE 1.0 mph 4.0 mph 59% 0.00 in
18:04 40.4 °F 27.2 °F 30.36 in Calm   3.0 mph 59% 0.00 in
18:09 40.3 °F 26.7 °F 30.36 in East 1.0 mph 3.0 mph 58% 0.00 in
18:14 40.2 °F 26.6 °F 30.36 in East 2.0 mph 6.0 mph 58% 0.00 in
18:19 40.2 °F 27.0 °F 30.37 in East 1.0 mph 2.0 mph 59% 0.00 in
18:24 40.1 °F 26.9 °F 30.37 in Calm   3.0 mph 59% 0.00 in
18:29 40.0 °F 26.8 °F 30.37 in East 1.0 mph 3.0 mph 59% 0.00 in
18:34 39.9 °F 27.1 °F 30.37 in East 1.0 mph 3.0 mph 60% 0.00 in
18:39 39.8 °F 27.4 °F 30.37 in East 1.0 mph 3.0 mph 61% 0.00 in
18:44 39.6 °F 27.6 °F 30.37 in Calm   2.0 mph 62% 0.00 in
18:49 39.5 °F 27.9 °F 30.38 in Calm   3.0 mph 63% 0.00 in
18:54 39.3 °F 28.1 °F 30.37 in East 1.0 mph 2.0 mph 64% 0.00 in
18:59 39.2 °F 27.7 °F 30.37 in Calm   3.0 mph 63% 0.00 in
19:04 39.1 °F 27.9 °F 30.38 in ENE 1.0 mph 3.0 mph 64% 0.00 in
19:09 39.1 °F 27.6 °F 30.38 in ENE 1.0 mph 3.0 mph 63% 0.00 in
19:14 39.1 °F 27.9 °F 30.38 in ENE 1.0 mph 3.0 mph 64% 0.00 in
19:19 39.0 °F 27.5 °F 30.38 in Calm   3.0 mph 63% 0.00 in
19:24 39.1 °F 27.9 °F 30.38 in Calm   2.0 mph 64% 0.00 in
19:29 39.1 °F 27.6 °F 30.37 in Calm     63% 0.00 in
19:34 39.0 °F 27.5 °F 30.37 in Calm   1.0 mph 63% 0.00 in
19:39 39.0 °F 27.5 °F 30.37 in Calm   1.0 mph 63% 0.00 in
19:44 39.0 °F 27.5 °F 30.37 in Calm   2.0 mph 63% 0.00 in
19:49 39.0 °F 27.8 °F 30.37 in Calm   2.0 mph 64% 0.00 in
19:54 38.9 °F 27.8 °F 30.37 in Calm   3.0 mph 64% 0.00 in
19:59 38.7 °F 27.9 °F 30.37 in Calm     65% 0.00 in
20:04 38.5 °F 28.1 °F 30.37 in Calm     66% 0.00 in
20:09 38.4 °F 28.0 °F 30.36 in Calm     66% 0.00 in
20:14 38.2 °F 28.2 °F 30.36 in Calm     67% 0.00 in
20:19 38.2 °F 28.2 °F 30.36 in Calm     67% 0.00 in
20:24 38.1 °F 28.1 °F 30.36 in Calm     67% 0.00 in
20:29 38.0 °F 28.7 °F 30.36 in Calm     69% 0.00 in
20:34 37.9 °F 29.0 °F 30.36 in Calm     70% 0.00 in
20:39 37.8 °F 28.9 °F 30.36 in Calm     70% 0.00 in
20:44 37.9 °F 29.3 °F 30.36 in Calm     71% 0.00 in
20:49 37.8 °F 28.9 °F 30.36 in Calm     70% 0.00 in
20:54 37.9 °F 29.3 °F 30.36 in Calm     71% 0.00 in
21:00 37.9 °F 29.3 °F 30.36 in Calm     71% 0.00 in
21:04 37.7 °F 29.1 °F 30.37 in Calm     71% 0.00 in
21:09 37.6 °F 29.0 °F 30.36 in Calm     71% 0.00 in
21:14 37.4 °F 29.2 °F 30.36 in Calm     72% 0.00 in
21:19 37.2 °F 29.0 °F 30.36 in Calm     72% 0.00 in
21:24 36.9 °F 29.1 °F 30.36 in Calm     73% 0.00 in
21:29 36.7 °F 29.5 °F 30.36 in Calm     75% 0.00 in
21:34 36.5 °F 29.7 °F 30.37 in Calm     76% 0.00 in
21:39 36.5 °F 30.0 °F 30.37 in Calm     77% 0.00 in
21:44 36.4 °F 29.9 °F 30.36 in Calm     77% 0.00 in
21:49 36.3 °F 30.1 °F 30.36 in Calm     78% 0.00 in
21:54 36.4 °F 30.2 °F 30.36 in Calm     78% 0.00 in
21:59 36.5 °F 30.3 °F 30.36 in Calm     78% 0.00 in
22:05 36.5 °F 30.3 °F 30.36 in Calm     78% 0.01 in
22:19 36.8 °F 31.2 °F 30.36 in Calm     80% 0.01 in
22:24 36.7 °F 30.8 °F 30.36 in Calm     79% 0.01 in
22:29 36.7 °F 30.8 °F 30.35 in Calm     79% 0.01 in
22:34 36.8 °F 30.9 °F 30.35 in Calm   3.0 mph 79% 0.01 in
22:39 36.7 °F 31.1 °F 30.35 in Calm   3.0 mph 80% 0.01 in
22:44 36.7 °F 31.1 °F 30.35 in Calm   1.0 mph 80% 0.01 in
22:49 36.6 °F 31.0 °F 30.35 in Calm     80% 0.01 in
22:54 36.6 °F 31.0 °F 30.35 in Calm     80% 0.01 in
22:59 36.6 °F 31.0 °F 30.35 in Calm     80% 0.01 in
23:04 36.6 °F 31.0 °F 30.35 in Calm     80% 0.00 in
23:09 36.6 °F 31.0 °F 30.35 in Calm     80% 0.00 in
23:14 36.7 °F 31.1 °F 30.35 in Calm     80% 0.00 in
23:19 36.5 °F 30.9 °F 30.35 in Calm     80% 0.00 in
23:24 36.4 °F 30.8 °F 30.35 in Calm     80% 0.00 in
23:29 36.4 °F 30.8 °F 30.35 in Calm     80% 0.00 in
23:34 36.4 °F 30.8 °F 30.35 in Calm     80% 0.01 in
23:39 36.3 °F 31.0 °F 30.35 in Calm     81% 0.01 in
23:44 36.2 °F 30.9 °F 30.35 in Calm     81% 0.01 in
23:49 36.1 °F 30.5 °F 30.35 in Calm     80% 0.01 in
23:54 36.0 °F 30.7 °F 30.35 in Calm     81% 0.01 in
23:59 35.9 °F 30.6 °F 30.35 in Calm     81% 0.01 in
Buffalo, New York, USA
Compliments of Weather Underground - 2.5 mb